User: anonymous   Login
Location: Newark
(49.3000°N, 9.4667°E)
Time: 00:46:25
(UTC+00:00)
Language:

Vanguard 2 - Orbit

View from above orbital plane
View from above orbital plane
View from above satellite
View from above satellite

Ground track
Ground track

The orbit data is extracted from the following two-line orbital elements,

1    11U 59001A   19140.29979487 -.00000016  00000-0 -23092-4 0  9996
2    11  32.8698  95.1206 1468516 186.5297 171.3980 11.85622936569925
Epoch (UTC): 20 May 2019 07:11:42
Eccentricity: 0.1468516
inclination: 32.8698°
perigee height: 553 km
apogee height: 2939 km
right ascension of ascending node: 95.1206°
argument of perigee: 186.5297°
revolutions per day: 11.85622936
mean anomaly at epoch: 171.3980°
orbit number at epoch: 56992

The dashed part of the orbit path shows where the satellite is in the earth's shadow,  

DLR